Tracking 17921 objects as of 18-January-2017
HD Live streaming from Space Station
objects crossing your sky now

BONUM 1

Track BONUM 1 now!
BONUM 1 is classified as:


NORAD ID: 25546
Int'l Code: 1998-068A
Perigee: 36,128.7 km
Apogee: 36,179.4 km
Inclination: 3.9 °
Period: 1,454.5 minutes
Semi major axis: 42525 km
RCS: 0.003 m2 (small)
Launch date: November 22, 1998
Source: Commonwealth of Independent States (former USSR) (CIS)
Launch site: AIR FORCE EASTERN TEST RANGE (AFETR)

Television broadcasting; 8 Ku-band, Siberia or Europe, selected.
Your satellite tracking list
Your tracking list is empty





NASA's NSSDC Master Catalog

Two Line Element Set (TLE):
1 25546U 98068A   17017.26846741  .00000020  00000-0  00000+0 0  9998
2 25546   3.9336  68.0548 0005959 237.0111 122.9009  0.99037647 66484
Source of the keplerian elements: AFSPC